OPS 4682 DEB, 38378

Orbit data source: Space-Track

OPS 4682 DEB, 38378 is space debris in LEO originally from a launch on Sat, 03 Apr 1965 UTC launched from the Air Force Western Test Range (AFWTR). Debris objects in space refer to the collection of defunct objects orbiting the Earth. Examples of debris include non-operational satellites, rocket bodies, and fragments generated from explosions, collisions, or faulty payload assembly.

Loading next visibility...
Identifier
38378, 1965-027CF
Orbit
LEO
Country
Flag of USUS
Related business
Manufacturer
Unknown
Mission
Spacecraft
Bus & Motor
Unknown
Mass
Unknown
Launch date (UTC)
1965-04-03 (61 years ago)
Launch vehicle
Unknown
Launch site
Air Force Western Test Range (AFWTR)
Object type
Payload
Rocket body
Debris
Shape & HBR
Unknown shape, 0.1 m
Radar Cross Section
Medium (>0.1 m² and <1 m²)

Expand to show TLE details & history
Last TLE update: 1 day ago

TLE from 1 day ago
0 OPS 4682 DEB
1 38378U 65027CF  26262.19869497  .00000582  00000-0  18188-2 0  9993
2 38378  90.2291 341.3683 0032518 294.8909  64.8836 13.03316525631253
Epoch: 2026-09-19T04:46Z
TLE epoch observation values (Epoch: 2026-09-19T04:46:07.245Z)
Latitude
-0.00002°
Longitude
-88.27255°
Altitude
1,241.545 km
Speed
7.239 km/s
True Right ascension
22h 45m 28s
True Declination
0° 00' 00"
Sunlit
Object was in full shadow at epoch
Visualization orbit readout
Latitude
Unknown
Longitude
Unknown
Altitude
Unknown
Speed
Unknown
Apparent Right ascension
Unknown
Apparent Declination
Unknown
Sunlit
N/A
Visualization observer readout
Local Sidereal Time
06:08:37
Azimuth
Unknown
Elevation
Unknown
Doppler factor
Unknown
Orbital elements
Apogee altitude
1,271.035 km
Perigee altitude
1,221.449 km
Semi-major axis
7,624.379 km
Eccentricity
0.00325
Inclination
90.2291°
RAAN
341.3683°
Arg. of periapsis
294.8909°
True anomaly
65.22158°
Mean anomaly
64.8836°
Eccentric anomaly
65.05253°
Mean motion
3.26014 °/min
Orbital period
110.42 mins
BSTAR
0.0018188
Loading maneuver chart data...
Computing Atmospheric mass density...
Loading historical data...
Loading historical data...
Loading historical data...
Loading historical data...
Loading historical data...
Loading historical data...
Loading historical data...

Documentation

Showing up to 5 results
|